{"data":{"norad_id":55601,"intl_designator":"2023-020AJ","name":"STARLINK-5744","alt_names":[],"object_type":"PAYLOAD","status":"ACTIVE","operator":null,"country":"US","launch_date":"2023-02-12","launch_site_code":"AFETR","launch_vehicle":null,"mission":null,"orbit_class":"UNKNOWN","rcs_meters":null,"size_class":null,"mass_kg":null,"dimensions":null,"purposes":["comms"],"wikipedia_slug":null,"has_3d_model":false,"image_url":null,"decayed_at":null,"tle_current":{"epoch":"2026-05-25T02:25:16.260096Z","epoch_age_seconds":70303,"freshness":"FRESH","line1":"1 55601U 23020AJ  26145.10088264  .00000185  00000+0  16237-4 0  9997","line2":"2 55601  43.0027 294.1132 0001315 268.9976  91.0725 15.27577452180596","mean_motion":15.27577452,"eccentricity":0.0001315,"inclination_deg":43.0027,"raan_deg":294.1132,"arg_perigee_deg":268.9976,"mean_anomaly_deg":91.0725,"bstar":1.6237e-5,"rev_number":18059,"period_min":94.266905950639,"perigee_km":482.15447870397,"apogee_km":483.95897265382,"semimajor_km":6861.1937256789,"source":"CELESTRAK","updated_at":"2026-05-25T13:38:17.841448Z"}}}